EN

Hourly Weather La Calera

Today, 25 July, Sunday

Time Temperature Precipitation Wind Pressure Humidity
00:00 +9°C° 0 mm 0 mps 548 mmHg 94%
01:00 +9°C° 0 mm 0 mps 548 mmHg 94%
02:00 +9°C° 0 mm 0 mps 548 mmHg 94%
03:00 +9°C° 0 mm 0 mps 547 mmHg 93%
04:00 +9°C° 0 mm 0 mps 547 mmHg 92%
05:00 +9°C° 0 mm 0 mps 548 mmHg 91%
06:00 +10°C° 0 mm 0 mps 548 mmHg 91%
07:00 +10°C° 0 mm 0 mps 548 mmHg 90%
08:00 +13°C° 0.2 mm 1 mps 549 mmHg 84%
09:00 +14°C° 0.2 mm 1 mps 550 mmHg 77%
10:00 +16°C° 0.2 mm 1 mps 551 mmHg 71%
11:00 +16°C° 0.7 mm 1 mps 550 mmHg 74%
12:00 +16°C° 0.7 mm 2 mps 550 mmHg 77%
13:00 +15°C° 0.7 mm 2 mps 549 mmHg 80%
14:00 +15°C° 0.9 mm 1 mps 549 mmHg 83%
15:00 +14°C° 0.9 mm 1 mps 548 mmHg 86%
16:00 +14°C° 0.9 mm 1 mps 548 mmHg 88%
17:00 +13°C° 0.4 mm 1 mps 548 mmHg 90%
18:00 +12°C° 0.4 mm 1 mps 548 mmHg 92%
19:00 +12°C° 0.4 mm 1 mps 548 mmHg 94%
20:00 +11°C° 0.2 mm 0 mps 548 mmHg 94%
21:00 +11°C° 0.2 mm 0 mps 549 mmHg 95%
22:00 +11°C° 0.2 mm 0 mps 549 mmHg 95%
23:00 +10°C° 0.1 mm 0 mps 548 mmHg 95%

Tomorrow, 26 July, Monday

Time Temperature Precipitation Wind Pressure Humidity
00:00 +10°C° 0.1 mm 0 mps 548 mmHg 95%
01:00 +10°C° 0.1 mm 0 mps 548 mmHg 95%
02:00 +10°C° 0.1 mm 0 mps 548 mmHg 95%
03:00 +9°C° 0.1 mm 0 mps 547 mmHg 95%
04:00 +9°C° 0.1 mm 0 mps 547 mmHg 95%
05:00 +9°C° 0 mm 0 mps 548 mmHg 94%
06:00 +10°C° 0 mm 0 mps 548 mmHg 93%
07:00 +10°C° 0 mm 0 mps 548 mmHg 92%
08:00 +13°C° 0.2 mm 1 mps 549 mmHg 86%
09:00 +14°C° 0.2 mm 1 mps 550 mmHg 79%
10:00 +16°C° 0.2 mm 1 mps 550 mmHg 73%
11:00 +16°C° 0.4 mm 2 mps 550 mmHg 71%
12:00 +16°C° 0.4 mm 2 mps 550 mmHg 70%
13:00 +17°C° 0.4 mm 2 mps 549 mmHg 69%
14:00 +16°C° 0.4 mm 2 mps 549 mmHg 70%
15:00 +16°C° 0.4 mm 2 mps 549 mmHg 71%
16:00 +16°C° 0.4 mm 2 mps 548 mmHg 73%
17:00 +14°C° 0.3 mm 1 mps 548 mmHg 79%
18:00 +13°C° 0.3 mm 1 mps 548 mmHg 86%
19:00 +11°C° 0.3 mm 1 mps 548 mmHg 93%
20:00 +11°C° 0 mm 1 mps 548 mmHg 93%
21:00 +11°C° 0 mm 1 mps 549 mmHg 94%
22:00 +11°C° 0 mm 1 mps 549 mmHg 94%
23:00 +10°C° 0.1 mm 0 mps 548 mmHg 94%

Day after tomorrow, 27 July, Tuesday

Time Temperature Precipitation Wind Pressure Humidity
00:00 +10°C° 0.1 mm 0 mps 548 mmHg 94%
01:00 +10°C° 0.1 mm 0 mps 548 mmHg 95%
02:00 +10°C° 0.1 mm 0 mps 548 mmHg 95%
03:00 +10°C° 0.1 mm 0 mps 547 mmHg 94%
04:00 +10°C° 0.1 mm 0 mps 547 mmHg 94%
05:00 +10°C° 0.5 mm 0 mps 548 mmHg 94%
06:00 +10°C° 0.5 mm 0 mps 548 mmHg 95%
07:00 +10°C° 0.5 mm 0 mps 548 mmHg 95%
08:00 +10°C° 1.7 mm 0 mps 549 mmHg 95%
09:00 +11°C° 1.7 mm 0 mps 549 mmHg 95%
10:00 +11°C° 1.7 mm 0 mps 549 mmHg 94%
11:00 +11°C° 0.3 mm 0 mps 549 mmHg 92%
12:00 +13°C° 0.3 mm 1 mps 549 mmHg 89%
13:00 +13°C° 0.3 mm 1 mps 549 mmHg 87%
14:00 +13°C° 0.6 mm 1 mps 548 mmHg 89%
15:00 +13°C° 0.6 mm 1 mps 548 mmHg 91%
16:00 +11°C° 0.6 mm 0 mps 547 mmHg 93%
17:00 +11°C° 0.4 mm 0 mps 548 mmHg 94%
18:00 +11°C° 0.4 mm 1 mps 548 mmHg 95%
19:00 +11°C° 0.4 mm 1 mps 548 mmHg 96%
20:00 +11°C° 0 mm 1 mps 548 mmHg 95%
21:00 +10°C° 0 mm 0 mps 548 mmHg 95%
22:00 +10°C° 0 mm 0 mps 549 mmHg 95%
23:00 +9°C° 0 mm 0 mps 548 mmHg 95%

28 July, Wednesday

Time Temperature Precipitation Wind Pressure Humidity
00:00 +9°C° 0 mm 0 mps 548 mmHg 95%
01:00 +9°C° 0 mm 0 mps 547 mmHg 95%
02:00 +9°C° 0 mm 0 mps 547 mmHg 95%
03:00 +9°C° 0 mm 0 mps 547 mmHg 95%
04:00 +9°C° 0 mm 0 mps 547 mmHg 95%
05:00 +9°C° 0 mm 0 mps 547 mmHg 94%
06:00 +9°C° 0 mm 0 mps 548 mmHg 94%
07:00 +10°C° 0 mm 0 mps 548 mmHg 93%
08:00 +11°C° 0.3 mm 1 mps 549 mmHg 91%
09:00 +12°C° 0.3 mm 1 mps 549 mmHg 89%
10:00 +13°C° 0.3 mm 1 mps 550 mmHg 87%
11:00 +13°C° 0.4 mm 1 mps 549 mmHg 88%
12:00 +12°C° 0.4 mm 1 mps 549 mmHg 90%
13:00 +12°C° 0.4 mm 1 mps 549 mmHg 91%
14:00 +12°C° 0.1 mm 1 mps 548 mmHg 88%
15:00 +13°C° 0.1 mm 1 mps 548 mmHg 85%
16:00 +14°C° 0.1 mm 1 mps 548 mmHg 82%
17:00 +12°C° 0.1 mm 1 mps 548 mmHg 86%
18:00 +11°C° 0.1 mm 1 mps 548 mmHg 90%
19:00 +10°C° 0.1 mm 1 mps 548 mmHg 94%
20:00 +10°C° 0 mm 1 mps 548 mmHg 94%
21:00 +10°C° 0 mm 1 mps 548 mmHg 94%
22:00 +9°C° 0 mm 1 mps 548 mmHg 95%
23:00 +9°C° 0 mm 1 mps 548 mmHg 95%

29 July, Thursday

Time Temperature Precipitation Wind Pressure Humidity
00:00 +9°C° 0 mm 1 mps 548 mmHg 95%
01:00 +9°C° 0 mm 1 mps 547 mmHg 95%
02:00 +9°C° 0 mm 1 mps 547 mmHg 95%
03:00 +9°C° 0 mm 1 mps 547 mmHg 95%
04:00 +9°C° 0 mm 1 mps 547 mmHg 95%
05:00 +9°C° 0 mm 1 mps 548 mmHg 94%
06:00 +10°C° 0 mm 1 mps 548 mmHg 94%
07:00 +10°C° 0 mm 1 mps 548 mmHg 93%
08:00 +11°C° 0.8 mm 1 mps 549 mmHg 91%
09:00 +11°C° 0.8 mm 1 mps 549 mmHg 89%
10:00 +12°C° 0.8 mm 1 mps 550 mmHg 87%
11:00 +12°C° 0.5 mm 1 mps 550 mmHg 87%
12:00 +12°C° 0.5 mm 1 mps 549 mmHg 86%
13:00 +12°C° 0.5 mm 1 mps 549 mmHg 86%
14:00 +13°C° 0.2 mm 1 mps 549 mmHg 82%
15:00 +14°C° 0.2 mm 1 mps 549 mmHg 79%
16:00 +14°C° 0.2 mm 2 mps 548 mmHg 76%
17:00 +13°C° 0.1 mm 1 mps 548 mmHg 81%
18:00 +12°C° 0.1 mm 1 mps 548 mmHg 87%
19:00 +10°C° 0.1 mm 1 mps 548 mmHg 93%
20:00 +10°C° 0 mm 1 mps 548 mmHg 93%
21:00 +10°C° 0 mm 1 mps 548 mmHg 94%
22:00 +9°C° 0 mm 1 mps 549 mmHg 94%
23:00 +9°C° 0 mm 1 mps 548 mmHg 94%

30 July, Friday

Time Temperature Precipitation Wind Pressure Humidity
00:00 +9°C° 0 mm 1 mps 548 mmHg 94%
01:00 +8°C° 0 mm 1 mps 548 mmHg 94%
02:00 +8°C° 0 mm 1 mps 547 mmHg 94%
03:00 +8°C° 0 mm 1 mps 547 mmHg 94%
04:00 +9°C° 0 mm 1 mps 547 mmHg 93%
05:00 +9°C° 0 mm 1 mps 548 mmHg 92%
06:00 +10°C° 0 mm 1 mps 548 mmHg 90%
07:00 +10°C° 0 mm 1 mps 549 mmHg 89%
08:00 +13°C° 0 mm 1 mps 550 mmHg 80%
09:00 +15°C° 0 mm 1 mps 551 mmHg 71%
10:00 +18°C° 0 mm 1 mps 552 mmHg 62%
11:00 +17°C° 0.4 mm 2 mps 551 mmHg 63%
12:00 +17°C° 0.4 mm 2 mps 551 mmHg 65%
13:00 +17°C° 0.4 mm 2 mps 550 mmHg 67%
14:00 +16°C° 0.4 mm 2 mps 550 mmHg 69%
15:00 +16°C° 0.4 mm 2 mps 549 mmHg 72%
16:00 +15°C° 0.4 mm 2 mps 549 mmHg 75%
17:00 +14°C° 0.2 mm 2 mps 549 mmHg 80%
18:00 +13°C° 0.2 mm 1 mps 548 mmHg 86%
19:00 +11°C° 0.2 mm 1 mps 548 mmHg 92%
20:00 +11°C° 0 mm 1 mps 549 mmHg 91%
21:00 +11°C° 0 mm 1 mps 549 mmHg 91%
22:00 +10°C° 0 mm 1 mps 549 mmHg 91%
23:00 +10°C° 0 mm 1 mps 549 mmHg 91%
Show more